User: anonymous   Login
Location: Caltech
(34.1382°N, 118.1253°W)
Time: 19:30:11
(UTC-07:00)
Language:

Gurwin Techsat 1B - Orbit

View from above orbital plane
View from above orbital plane
View from above satellite
View from above satellite

Ground track
Ground track

The orbit data is extracted from the following two-line orbital elements,

1 25397U 98043D   15244.85702082  .00000011  00000-0  23319-4 0  9992
2 25397  98.5262 192.9211 0002437  95.5271 321.4666 14.23558173890701
Epoch (UTC): 01 September 2015 20:34:06
Eccentricity: 0.0002437
inclination: 98.5262°
perigee height: 811 km
apogee height: 815 km
right ascension of ascending node: 192.9211°
argument of perigee: 95.5271°
revolutions per day: 14.23558173
mean anomaly at epoch: 321.4666°
orbit number at epoch: 89070

The dashed part of the orbit path shows where the satellite is in the earth's shadow,  

DLR